STARLINK-1626, 46167

Orbit data source: Space-Track

STARLINK-1626, 46167 is a payload satellite owned by SpaceX/Seattle (US) in LEO that was launched on Tue, 18 Aug 2020 UTC via an FALCON 9 launch vehicle from the Air Force Eastern Test Range (AFETR). Payload-class satellites include a variety of spacecraft equipped with specific instruments for various scientific and technological missions. These include communications satellites like Starlink; space stations such as the ISS; scientific satellites like the Hubble; Earth observation satellites from companies like Planet Labs, Umbra, and HawkEye 360; GPS; miniature CubeSats for education and research; and military/defense satellites.

Loading next visibility...
Identifier
46167, 2020-057BC
Orbit
LEO
Country
Flag of USUS
Related business
Manufacturer
SpaceX/Seattle
Mission
Partially operational Commercial Communications
Bus & Motor
STARLINK, Unknown motor
Mass
260 kg wet, ~248 kg dry
Launch date (UTC)
2020-08-18 (6 years ago)
Launch vehicle
FALCON 9
Launch site
Air Force Eastern Test Range (AFETR)
Object type
Payload
Rocket body
Debris
Shape & HBR
Box + 1 Pan, 10.1 m
Radar Cross Section
13.562 m², Large (>1 m²)

Expand to show TLE details & history
Last TLE update: 2 days ago

TLE from 2 days ago
0 STARLINK-1626
1 46167U 20057BC  26171.33000841  .00117710  00000-0  66928-3 0  9995
2 46167  53.0384 149.9570 0001633  98.7953 261.3252 15.78157549322468
Epoch: 2026-06-20T07:55Z
TLE epoch observation values (Epoch: 2026-06-20T07:55:12.726Z)
Latitude
-0.00002°
Longitude
122.60778°
Altitude
336.731 km
Speed
7.708 km/s
True Right ascension
09h 59m 49s
True Declination
0° 00' 00"
Sunlit
Object was in daylight at epoch
Visualization orbit readout
Latitude
Unknown
Longitude
Unknown
Altitude
Unknown
Speed
Unknown
Apparent Right ascension
Unknown
Apparent Declination
Unknown
Sunlit
N/A
Visualization observer readout
Local Sidereal Time
21:37:54
Azimuth
Unknown
Elevation
Unknown
Doppler factor
Unknown
Orbital elements
Apogee altitude
337.039 km
Perigee altitude
334.846 km
Semi-major axis
6,714.08 km
Eccentricity
0.00016
Inclination
53.0384°
RAAN
149.957°
Arg. of periapsis
98.7953°
True anomaly
261.3067°
Mean anomaly
261.3252°
Eccentric anomaly
261.31595°
Mean motion
3.94515 °/min
Orbital period
91.25 mins
BSTAR
0.00066928
Loading maneuver chart data...
Computing Atmospheric mass density...

Documentation

Showing up to 5 results
|